Location: Almena Post Office
(39.8928°N, 99.7066°W)
Time: 06:27:31
(UTC+00:00)

COSMOS 2455 - Pass Details

Date: 27 February 2020
Orbit: 901 x 909 km, 67.2° (Epoch: 07 April)

Event Time Altitude Azimuth Distance (km) Brightness Sun altitude
Rises 12:23:46 0° 332° (NNW) 3,542 5.6 -10.7°
Reaches altitude 10° 12:26:18 10° 335° (NNW) 2,598 5.0 -10.2°
Maximum altitude 12:32:20 74° 61° (ENE) 944 3.1 -9.1°
Drops below altitude 10° 12:38:20 10° 146° (SE) 2,584 5.8 -7.9°
Sets 12:40:50 0° 148° (SSE) 3,522 6.5 -7.5°
